[[{"header":{"parameterUnit":"m.s-1","parameterCategory":1,"la1":30.2991,"la2":30.254,"lo1":-89.0895,"lo2":-89.0444,"dy":0.0017,"dx":0.0017,"nx":28,"ny":28,"refTime":"2025-03-23T03:00:00:Z","depth":0,"parameterNumber":2,"parameterNumberName":"U-component_of_WINDS"},"data":[0,0,0,0,0,0,0,0,0,0,0,0,0,0,0,0,0,0,0,0,0,0,0,0,0,0,0,0,0,0,0,0,0,0,0,0,0,0,0,0,0,0,0,0,0,0,0,0,0,0,0,0,0,0,0,0,0,0,1.1217,1.1218,0,1.1295,1.1296,1.1297,1.1345,1.1346,1.1346,1.1346,1.1427,1.1429,1.1431,0,0,0,0,0,0,0,0,0,0,0,0,0,1.1111,1.1113,1.1217,1.1218,1.1219,1.1295,1.1296,1.1297,1.1345,1.1346,1.1346,1.1346,1.1427,1.1429,1.1431,0,0,0,0,0,0,0,0,0,0,0,0,0,1.117,1.1114,1.1217,1.1252,1.1256,1.1295,1.1296,1.1297,1.1345,1.1346,1.1346,1.1346,1.1426,1.1429,1.1432,1.1441,0,0,1.144,1.1442,0,0,0,0,0,0,0,0,1.1167,1.1174,1.1246,1.125,1.1254,1.1311,1.1289,1.1346,1.1345,1.1311,1.1346,1.1347,1.1388,1.1394,1.1408,1.1445,1.1449,1.1441,1.1442,1.1444,1.1444,0,0,0,0,0,0,0,1.1163,1.1171,1.1248,1.1247,1.1252,1.1265,1.1273,1.13,1.1347,1.1314,1.1318,1.1327,1.1391,1.1405,1.141,1.145,1.1441,1.1443,1.1445,1.1446,1.15,1.15,0,0,0,0,0,0,1.1153,1.1167,1.1245,1.125,1.1211,1.1266,1.1276,1.1292,1.1347,1.1355,1.1326,1.1329,1.14,1.1407,1.1413,1.143,1.1444,1.1446,1.1448,1.1501,1.15,1.15,0,0,0,0,0,0,1.115,1.1159,1.1242,1.121,1.1221,1.1268,1.1285,1.1294,1.1308,1.1355,1.1364,1.1332,1.1401,1.1409,1.1434,1.1433,1.1448,1.145,1.1501,1.1501,1.15,1.1461,0,0,0,0,0,0,1.1147,1.1158,1.1162,1.1209,1.1223,1.1261,1.1285,1.1295,1.1313,1.1317,1.1364,1.1372,1.1402,1.143,1.1437,1.1437,1.1452,1.1501,1.1501,1.15,1.1463,1.1459,1.1456,0,0,0,0,0,1.1143,1.1148,1.1162,1.1171,1.1228,1.1261,1.1269,1.1303,1.1313,1.1317,1.1348,1.137,1.1432,1.1432,1.1441,1.1441,1.1502,1.1501,1.15,1.1464,1.146,1.1456,0,0,0,0,0,0,1.1099,1.1155,1.1171,1.1191,1.1221,1.1269,1.1276,1.1297,1.1325,1.1328,1.1369,1.1379,1.14,1.1423,1.1423,1.1455,1.1469,1.147,1.1439,1.1435,1.1432,1.1426,1.1455,0,0,0,0,0,1.1091,1.1113,1.116,1.1174,1.1188,1.1229,1.1244,1.1268,1.1301,1.1314,1.1346,1.1378,1.1404,1.1421,1.1448,1.1466,1.1478,1.1471,1.1468,1.1465,1.1466,1.1478,1.1476,1.1498,1.1498,1.1498,0,0,1.1076,1.111,1.1121,1.1166,1.1192,1.1213,1.1239,1.1261,1.1278,1.1318,1.1343,1.1368,1.1406,1.1427,1.1439,1.1447,1.1462,1.1464,1.1462,1.1464,1.1477,1.1475,1.1473,1.1498,1.1498,1.1498,0,0,1.106,1.1087,1.1102,1.1127,1.1166,1.1194,1.1197,1.1242,1.126,1.1286,1.1317,1.1337,1.1382,1.1408,1.1427,1.1421,1.1444,1.1429,1.1413,1.1425,1.1423,1.1422,1.1421,1.142,1.1429,1.1429,1.1429,0,1.1037,1.1071,1.1106,1.1127,1.1146,1.1182,1.1198,1.1221,1.1267,1.1279,1.1288,1.1346,1.1374,1.1402,1.1401,1.1415,1.1421,1.1424,1.142,1.1419,1.1419,1.1418,1.1417,1.1427,1.1428,1.1428,1.1428,0,1.104,1.1063,1.107,1.1113,1.1134,1.1151,1.119,1.1206,1.1228,1.1255,1.1282,1.1317,1.1352,1.136,1.1382,1.1392,1.1397,1.1412,1.1428,1.1414,1.1414,1.1414,1.1425,1.1425,1.1426,1.1426,0,0,1.0999,1.1062,1.1064,1.1084,1.113,1.1149,1.1168,1.1202,1.1216,1.1246,1.1264,1.1301,1.1316,1.1338,1.1363,1.1373,1.1367,1.1388,1.1389,1.1384,1.1383,1.1371,1.137,1.1382,1.1382,1.1382,1.138,0,1.099,1.1027,1.106,1.1085,1.1107,1.1142,1.1159,1.119,1.1215,1.1238,1.1267,1.1293,1.131,1.1323,1.1335,1.1366,1.1368,1.1366,1.14,1.1401,1.139,1.137,1.1358,1.1354,1.138,1.138,1.138,0,1.0985,1.1014,1.1041,1.1085,1.1096,1.1111,1.1145,1.1166,1.1202,1.122,1.1244,1.127,1.1293,1.1306,1.1339,1.1337,1.1353,1.1371,1.1371,1.1377,1.139,1.1375,1.1353,1.1352,1.138,1.138,1.138,0,1.0953,1.0999,1.1021,1.1037,1.1089,1.1099,1.1122,1.1157,1.1176,1.1206,1.1219,1.1251,1.1269,1.1294,1.1329,1.1335,1.1358,1.1374,1.1375,1.1374,1.1379,1.1378,1.1359,1.1388,1.1388,1.1388,1.1388,0,1.094,1.0956,1.1008,1.1021,1.104,1.1078,1.1095,1.1121,1.1152,1.1172,1.1205,1.1223,1.1267,1.1291,1.1318,1.1342,1.135,1.1365,1.1373,1.1363,1.1361,1.1374,1.1376,1.1387,1.1387,1.1387,1.1388,0,1.0908,1.0943,1.097,1.1017,1.1029,1.1041,1.1082,1.1097,1.1124,1.1149,1.1157,1.1201,1.123,1.1267,1.1309,1.1327,1.1348,1.1359,1.1336,1.1341,1.134,1.1339,1.1329,1.133,1.1357,1.1357,1.1356,0,1.0898,1.091,1.0959,1.0975,1.0996,1.102,1.104,1.1078,1.1096,1.1138,1.1148,1.118,1.1208,1.1254,1.129,1.1322,1.1334,1.1328,1.1339,1.1329,1.1335,1.1334,1.1336,1.1325,1.1325,1.1324,1.1324,0,1.0876,1.0893,1.0919,1.0952,1.0974,1.1002,1.1031,1.1042,1.1086,1.1105,1.1136,1.1157,1.12,1.1231,1.1268,1.1292,1.1316,1.132,1.1323,1.1313,1.13,1.1308,1.1329,1.1321,1.1321,1.1321,1.1321,1.1322,1.0855,1.0869,1.0905,1.0934,1.0959,1.0986,1.1003,1.1032,1.1058,1.1095,1.1116,1.1147,1.1183,1.1235,1.1257,1.1282,1.1291,1.1294,1.1294,1.1295,1.1292,1.1295,1.1289,1.1289,1.1289,1.1289,1.1289,0,1.0836,1.0861,1.0887,1.0927,1.0949,1.0969,1.1003,1.102,1.1046,1.1078,1.1104,1.114,1.1171,1.1209,1.1243,1.1256,1.1267,1.1263,1.1263,1.1268,1.1282,1.1277,1.1253,1.1253,1.1253,1.1253,1.1253,1.1253,1.0829,1.0853,1.0874,1.0911,1.0937,1.0966,1.0984,1.1009,1.1034,1.1072,1.1098,1.1123,1.1157,1.1194,1.1224,1.1234,1.1246,1.1238,1.1252,1.1264,1.1267,1.127,1.1266,1.124,1.124,1.1237,1.1237,1.1237]},{"header":{"parameterUnit":"m.s-1","parameterCategory":1,"la1":30.2991,"la2":30.254,"lo1":-89.0895,"lo2":-89.0444,"dy":0.0017,"dx":0.0017,"nx":28,"ny":28,"refTime":"2025-03-23T03:00:00:Z","depth":0,"parameterNumber":3,"parameterNumberName":"V-component_of_WINDS"},"data":[0,0,0,0,0,0,0,0,0,0,0,0,0,0,0,0,0,0,0,0,0,0,0,0,0,0,0,0,0,0,0,0,0,0,0,0,0,0,0,0,0,0,0,0,0,0,0,0,0,0,0,0,0,0,0,0,0,0,0.6698,0.6699,0,0.6755,0.6756,0.6756,0.6757,0.6757,0.6756,0.6755,0.6815,0.6817,0.6819,0,0,0,0,0,0,0,0,0,0,0,0,0,0.6591,0.6593,0.6698,0.6699,0.67,0.6755,0.6756,0.6757,0.6757,0.6757,0.6756,0.6755,0.6814,0.6817,0.682,0,0,0,0,0,0,0,0,0,0,0,0,0,0.6642,0.6594,0.6698,0.6707,0.6708,0.6755,0.6756,0.6757,0.6758,0.6757,0.6756,0.6755,0.6813,0.6817,0.682,0.6862,0,0,0.683,0.6832,0,0,0,0,0,0,0,0,0.6639,0.6646,0.6705,0.6706,0.6708,0.6748,0.674,0.6792,0.6758,0.6739,0.6755,0.6754,0.6794,0.6799,0.6812,0.6865,0.6868,0.6831,0.6833,0.6834,0.6835,0,0,0,0,0,0,0,0.6635,0.6643,0.6721,0.6706,0.6707,0.6708,0.6714,0.675,0.6772,0.674,0.6741,0.6747,0.6794,0.6808,0.6813,0.6869,0.6831,0.6834,0.6836,0.6837,0.6959,0.696,0,0,0,0,0,0,0.663,0.664,0.6719,0.6722,0.667,0.6711,0.6717,0.6736,0.6771,0.6776,0.6748,0.6747,0.6803,0.6809,0.6815,0.6867,0.6834,0.6837,0.6839,0.6958,0.6959,0.6961,0,0,0,0,0,0,0.6628,0.6637,0.6717,0.6681,0.6692,0.6714,0.6735,0.6738,0.6752,0.6777,0.6781,0.6758,0.6803,0.681,0.685,0.6869,0.6839,0.6842,0.6956,0.6958,0.696,0.697,0,0,0,0,0,0,0.6624,0.6636,0.6652,0.6682,0.6693,0.6751,0.6736,0.674,0.6758,0.6757,0.6788,0.6792,0.6802,0.6845,0.6854,0.6873,0.6845,0.6955,0.6957,0.6959,0.6968,0.6972,0.6975,0,0,0,0,0,0.6621,0.6653,0.6653,0.6663,0.6714,0.6752,0.6758,0.6769,0.6759,0.6776,0.6792,0.6791,0.6865,0.6849,0.6859,0.6879,0.6954,0.6957,0.6959,0.6967,0.6971,0.6975,0,0,0,0,0,0,0.6626,0.6657,0.6658,0.6701,0.6723,0.6752,0.6773,0.6774,0.68,0.6799,0.6811,0.6818,0.6858,0.6873,0.6854,0.6922,0.6908,0.6913,0.6911,0.6915,0.6919,0.6914,0.6847,0,0,0,0,0,0.6633,0.666,0.6686,0.6722,0.6733,0.6751,0.6768,0.6774,0.6798,0.6808,0.6827,0.6851,0.6879,0.6898,0.6926,0.697,0.6977,0.6989,0.6992,0.6995,0.6999,0.7023,0.7028,0.6969,0.6969,0.6969,0,0,0.6646,0.6666,0.6683,0.6723,0.6742,0.677,0.6759,0.679,0.6811,0.6813,0.6851,0.6866,0.6894,0.6935,0.6955,0.6949,0.7016,0.6998,0.7,0.7003,0.7026,0.7031,0.7036,0.6971,0.6971,0.6971,0,0,0.6685,0.6703,0.6734,0.6752,0.678,0.6791,0.6799,0.6827,0.6836,0.6875,0.6877,0.6902,0.6952,0.6971,0.6987,0.7032,0.7032,0.7041,0.7059,0.7082,0.7086,0.7091,0.7106,0.7112,0.7044,0.7044,0.7044,0,0.6698,0.674,0.675,0.6781,0.6798,0.68,0.6832,0.6849,0.6885,0.6897,0.6889,0.695,0.6969,0.7015,0.7026,0.7039,0.7048,0.7037,0.7085,0.7089,0.7093,0.7108,0.7114,0.7045,0.7045,0.7045,0.7045,0,0.6755,0.6784,0.6806,0.6839,0.6859,0.689,0.6905,0.6924,0.6928,0.694,0.6979,0.7002,0.7034,0.7045,0.705,0.7092,0.7087,0.7082,0.7069,0.7099,0.7114,0.7119,0.7046,0.7046,0.7046,0.7046,0,0,0.6799,0.6837,0.6845,0.6859,0.6889,0.6912,0.6943,0.6974,0.6989,0.7014,0.704,0.7081,0.7076,0.7094,0.7101,0.7121,0.7154,0.7114,0.7115,0.712,0.7201,0.7204,0.7211,0.7155,0.7156,0.7157,0.7199,0,0.6841,0.6895,0.6904,0.6952,0.6979,0.6981,0.7007,0.7029,0.7041,0.7066,0.7079,0.7108,0.71,0.7111,0.7131,0.7146,0.7171,0.7143,0.7179,0.718,0.7172,0.7218,0.7222,0.7261,0.7204,0.7205,0.7206,0,0.6897,0.6921,0.6971,0.6997,0.7008,0.7032,0.706,0.7084,0.7108,0.7115,0.7135,0.714,0.7171,0.7157,0.7201,0.7182,0.7197,0.7206,0.7208,0.7212,0.7195,0.7223,0.7274,0.7279,0.7215,0.7214,0.7214,0,0.6924,0.6969,0.7005,0.7017,0.7048,0.7065,0.7078,0.7101,0.7119,0.7143,0.7155,0.7183,0.7199,0.7221,0.7232,0.7221,0.7276,0.7262,0.7283,0.7282,0.7294,0.7293,0.7347,0.7304,0.7304,0.7304,0.7304,0,0.6969,0.6999,0.7017,0.7039,0.7073,0.7083,0.7117,0.713,0.715,0.7175,0.7178,0.7201,0.7215,0.7241,0.725,0.7285,0.7292,0.7299,0.7301,0.7298,0.7297,0.7309,0.7306,0.7305,0.7305,0.7305,0.7305,0,0.7005,0.7018,0.7057,0.7082,0.7089,0.7113,0.7135,0.7156,0.7168,0.7199,0.7207,0.7225,0.7255,0.7268,0.7305,0.7312,0.7351,0.7351,0.7343,0.7343,0.7363,0.7361,0.7426,0.7435,0.7386,0.7387,0.7387,0,0.7033,0.7056,0.7084,0.71,0.7114,0.714,0.7158,0.7169,0.7187,0.7215,0.7233,0.7262,0.7286,0.7334,0.7351,0.7379,0.738,0.74,0.7384,0.738,0.738,0.7378,0.738,0.7404,0.7404,0.7404,0.7405,0,0.7081,0.7086,0.7111,0.7138,0.7158,0.718,0.7202,0.7215,0.7229,0.7249,0.7279,0.7298,0.7334,0.7364,0.7393,0.7407,0.7408,0.741,0.7416,0.7414,0.7407,0.7411,0.7351,0.7408,0.7408,0.7408,0.7407,0.7407,0.7114,0.7134,0.7157,0.7184,0.7201,0.722,0.7241,0.7255,0.728,0.731,0.7315,0.7347,0.737,0.7408,0.7424,0.7449,0.7444,0.7453,0.7455,0.7457,0.7458,0.7403,0.7454,0.7454,0.7454,0.7454,0.7454,0,0.7162,0.7176,0.7201,0.723,0.7252,0.725,0.7273,0.7291,0.7319,0.734,0.7363,0.7397,0.7425,0.7444,0.7472,0.7488,0.749,0.7495,0.7494,0.7497,0.7461,0.7453,0.7494,0.7494,0.7494,0.7494,0.7494,0.7494,0.719,0.7224,0.7231,0.7274,0.7288,0.7318,0.7331,0.7349,0.7366,0.7403,0.7426,0.7438,0.7458,0.7487,0.7513,0.7518,0.7528,0.7534,0.7539,0.7504,0.75,0.7496,0.7488,0.7536,0.7536,0.7573,0.7573,0.7573]}]]